This is the latest recevied weather packets stored in our database for station/object WA1NHP. If no packets are shown the sender has not sent any weather packets the latest 10 day(s).
| Time | Temp. | Humidity | Pressure | Rain* | Wind** | Luminosity | Snow |
|---|---|---|---|---|---|---|---|
| 1777668243 | 14.44° C | 40% | 1023.9 hPa | 0 mm | - | 118 W/m² | - |
| 1777667644 | 14.44° C | 40% | 1023.9 hPa | 0 mm | - | 587 W/m² | - |
| 1777667044 | 13.89° C | 40% | 1023.9 hPa | 0 mm | - | 260 W/m² | - |
| 1777666443 | 14.44° C | 38% | 1023.9 hPa | 0 mm | - | 664 W/m² | - |
| 1777665844 | 14.44° C | 38% | 1023.9 hPa | 0 mm | - | 677 W/m² | - |
| 1777665244 | 13.89° C | 40% | 1023.9 hPa | 0 mm | - | 696 W/m² | - |
| 1777664644 | 14.44° C | 39% | 1023.9 hPa | 0 mm | - | 109 W/m² | - |
| 1777664043 | 14.44° C | 38% | 1023.9 hPa | 0 mm | - | 756 W/m² | - |
| 1777663444 | 15° C | 43% | 1023.9 hPa | 0 mm | - | 796 W/m² | - |
| 1777662844 | 15° C | 38% | 1023.9 hPa | 0 mm | - | 856 W/m² | - |
| 1777662243 | 15° C | 38% | 1023.9 hPa | 0 mm | - | 904 W/m² | - |
| 1777661644 | 15° C | 36% | 1023.9 hPa | 0 mm | - | 889 W/m² | - |
| 1777661044 | 15° C | 38% | 1023.9 hPa | 0 mm | - | 967 W/m² | - |
| 1777660444 | 13.33° C | 40% | 1023.9 hPa | 0 mm | - | 1030 W/m² | - |
| 1777659843 | 13.89° C | 39% | 1023.9 hPa | 0 mm | - | 1150 W/m² | - |
| 1777659244 | 13.33° C | 39% | 1023.9 hPa | 0 mm | - | 1067 W/m² | - |
| 1777658644 | 12.78° C | 45% | 1023.9 hPa | 0 mm | - | 214 W/m² | - |
| 1777658044 | 12.78° C | 42% | 1023.9 hPa | 0 mm | - | 408 W/m² | - |
| 1777657444 | 12.78° C | 46% | 1023.9 hPa | 0 mm | - | 239 W/m² | - |
| 1777656844 | 13.33° C | 47% | 1023.9 hPa | 0 mm | - | 445 W/m² | - |
| 1777656244 | 12.78° C | 44% | 1023.9 hPa | 0 mm | - | 309 W/m² | - |
| 1777655644 | 13.33° C | 46% | 1023.9 hPa | 0 mm | - | 1172 W/m² | - |
| 1777655043 | 12.78° C | 48% | 1023.9 hPa | 0 mm | - | 1171 W/m² | - |
| 1777654444 | 13.33° C | 50% | 1023.9 hPa | 0 mm | - | 1188 W/m² | - |
| 1777653844 | 12.78° C | 47% | 1023.9 hPa | 0 mm | - | 1085 W/m² | - |
* Rain latest hour (hover to see other rain measurements)
** Current wind speed in m/s (hover to see current wind gust speed)